RH
53 54 55 57 59 61 63 65 68 72 73 73 76 78 81 86 90 92 95 96 96 95 95 96 98 100 100 100 100 100 100 100 99 100 98 96 96 98 99 100 100 99
58 59 60 62 66 68 69 69 69 72 76 80 86 89 89 90 92 95 98 100 99 99 99 99 99 100 100 100 100 100 100 100 100 100 100 98 97 99 100 99 99 100
70 72 73 74 77 79 80 81 79 78 77 77 80 86 91 94 95 96 98 99 100 100 100 100 100 100 100 100 100 100 100 100 100 100 100 100 99 100 100 100 100 100
77 78 79 80 81 82 84 84 85 85 85 85 84 84 86 89 93 97 98 99 99 99 98 99 99 100 100 100 100 100 100 100 100 100 100 100 100 100 100 100 100 100
79 79 80 81 82 84 86 88 90 90 90 92 93 92 91 90 91 94 96 97 98 98 97 96 97 98 98 99 100 100 100 100 100 100 100 100 100 100 100 100 100 100
81 80 80 81 81 83 85 88 93 95 96 97 97 98 97 97 97 96 97 97 97 98 99 99 98 98 98 99 100 100 100 100 100 100 100 100 100 99 99 100 100 100
84 82 80 79 79 79 80 82 87 91 95 97 99 100 99 100 100 99 100 99 99 99 99 100 100 100 100 100 100 100 100 100 100 100 100 100 100 100 99 99 100 100
88 84 82 80 78 77 76 77 80 84 89 93 96 98 98 99 100 100 100 100 100 100 100 100 100 99 99 99 99 99 98 99 99 99 100 100 100 100 99 98 99 99
92 88 86 83 81 79 76 75 77 78 82 86 89 92 93 94 95 95 95 95 96 96 95 95 95 94 95 95 94 95 94 95 95 96 97 97 99 99 98 98 98 98
96 93 90 87 84 82 81 82 82 81 81 81 81 83 83 84 84 84 85 85 85 85 84 85 85 85 85 85 85 86 86 87 88 89 91 92 94 95 95 96 96 97
99 97 95 92 88 85 88 93 94 94 94 92 90 90 88 87 86 85 84 83 82 81 80 79 79 79 79 79 80 79 79 80 81 83 85 87 88 90 91 92 92 92
100 99 99 97 92 88 91 98 100 100 100 100 100 99 98 98 98 97 96 95 94 93 91 89 87 86 85 84 84 83 82 82 82 82 83 84 84 85 86 87 87 87
99 100 100 100 96 92 92 96 99 100 100 100 100 100 100 100 100 100 100 100 100 99 99 99 98 96 96 95 95 94 92 91 90 90 90 90 89 89 89 88 88 87
100 100 100 100 100 98 97 97 98 98 98 98 97 97 98 98 98 99 99 98 98 98 98 97 97 98 98 97 97 97 97 96 96 96 96 96 96 96 96 96 96 95
100 100 100 99 99 100 100 99 99 98 97 95 94 93 92 93 93 93 94 95 95 96 96 95 96 96 96 95 95 95 94 95 95 94 94 94 95 95 96 96 96 97
100 100 100 99 99 100 100 100 100 100 99 96 93 90 89 88 87 88 88 89 90 91 92 92 92 94 94 94 94 93 93 93 93 93 92 91 92 92 93 94 94 94
100 100 100 100 100 100 100 100 101 101 99 96 92 90 88 86 86 86 86 86 87 88 88 88 88 89 90 91 91 91 90 90 91 91 90 90 90 89 89 90 90 90
100 100 100 100 100 100 101 101 100 99 97 94 92 91 89 88 87 86 85 85 84 84 85 85 84 84 85 85 85 85 85 85 85 85 85 85 85 84 84 83 82 83
101 101 100 101 101 100 99 98 96 95 93 92 92 91 90 89 88 86 85 84 82 82 82 82 81 80 80 80 79 79 78 77 77 77 77 76 76 75 75 74 74 75
102 101 101 101 100 98 97 94 92 91 90 89 88 88 88 87 86 86 85 84 82 81 80 80 80 78 76 76 75 73 72 71 69 69 68 66 65 64 63 62 62 63
100 101 101 100 99 97 96 94 93 91 91 90 89 88 87 85 85 84 84 83 82 80 79 78 76 74 72 71 69 67 66 64 62 61 59 58 57 55 54 53 52 52
99 98 97 95 94 93 92 91 91 91 91 91 90 89 88 86 85 84 83 82 80 78 77 75 72 70 68 66 63 61 60 58 57 55 54 53 51 50 48 48 46 46
92 90 89 88 87 87 86 85 85 85 84 82 81 80 79 77 76 75 73 72 71 69 69 67 66 64 62 60 58 56 55 54 52 51 50 49 47 46 45 44 44 43
85 84 83 82 81 79 78 76 74 73 71 70 68 66 65 64 63 63 62 61 60 59 58 57 57 56 55 54 53 51 51 50 48 47 47 46 44 44 43 42 41 41
85 83 81 79 76 74 72 70 68 67 65 64 62 60 59 59 58 57 56 55 54 53 51 51 49 48 48 47 46 45 44 43 43 43 42 42 41 41 40 40 40 39
84 82 80 77 74 72 71 68 66 64 62 60 59 57 55 54 52 51 50 48 47 45 44 43 42 41 40 39 38 38 37 36 36 36 36 36 36 35 35 35 35 35
Wind_Speed
21 21 20 19 18 18 17 18 19 21 23 25 26 27 29 30 30 31 31 31 32 33 35 37 39 41 44 45 45 44 43 43 43 42 40 39 40 41 41 41 42 43
18 18 18 17 16 16 15 15 15 17 19 21 22 24 26 28 30 30 30 30 30 31 33 35 36 38 40 41 41 41 40 39 39 38 37 37 39 39 39 39 39 40
18 18 18 18 18 17 17 17 17 17 17 18 19 20 22 24 27 30 31 32 33 33 33 33 33 33 33 33 34 35 36 37 37 37 37 37 38 38 38 37 36 36
19 19 19 19 19 19 19 19 19 19 19 19 19 20 21 22 24 26 29 31 33 34 35 35 34 33 32 31 31 31 32 32 33 34 34 34 34 34 34 33 33 33
20 20 20 20 20 21 21 21 21 22 22 22 22 22 22 22 23 24 26 28 29 31 33 34 35 35 34 34 33 32 32 32 32 32 33 33 33 33 34 34 34 34
21 21 21 21 22 22 23 23 24 24 24 24 24 25 25 25 25 25 26 27 28 29 31 32 33 34 34 34 33 33 32 31 31 30 31 31 32 32 32 33 33 33
21 22 22 22 23 23 24 25 25 26 26 26 26 27 27 27 28 28 28 29 29 30 31 32 32 33 33 33 33 32 32 31 30 30 29 29 29 29 30 30 30 31
22 23 23 23 24 24 25 26 26 27 27 28 28 28 29 29 30 30 30 31 31 32 32 33 33 34 34 34 34 35 34 34 34 33 33 32 32 32 32 32 32 33
24 24 25 25 26 26 27 27 28 28 28 28 28 29 29 29 30 30 31 31 32 32 33 33 33 34 34 35 35 35 35 35 36 35 35 34 34 34 34 34 34 35
26 27 27 28 28 29 29 29 29 28 28 28 28 28 28 28 29 29 30 30 30 31 32 32 33 33 33 34 34 34 34 34 35 35 35 35 34 34 34 34 35 35
28 29 30 30 30 30 30 30 30 29 29 29 28 28 28 29 29 29 29 29 30 30 30 31 31 32 32 32 33 33 34 34 34 34 34 35 35 35 35 35 35 35
30 30 30 30 30 30 30 30 30 30 29 29 29 29 29 29 29 30 30 30 30 30 31 31 31 32 32 32 32 32 33 33 34 34 34 35 35 35 35 35 35 35
31 30 30 29 29 29 29 29 30 30 30 31 31 31 30 30 31 31 31 31 31 32 32 32 32 32 33 33 33 33 33 34 34 34 34 35 35 35 35 35 35 35
31 30 30 30 29 29 30 30 30 31 31 32 32 32 32 32 33 33 33 33 33 34 34 34 34 34 34 34 34 35 35 35 35 36 36 36 36 36 36 36 36 36
31 31 31 31 30 30 30 31 31 31 32 32 33 33 34 34 35 35 36 36 36 36 37 37 37 37 37 37 37 37 37 37 37 37 37 37 37 37 38 38 38 38
31 32 32 32 31 31 31 31 32 32 32 33 33 34 35 35 36 37 37 37 38 38 38 39 39 39 39 40 40 40 40 39 39 39 39 39 38 38 38 38 39 39
32 33 33 33 32 32 32 32 33 33 34 34 35 35 35 36 36 37 37 38 38 39 39 40 41 41 41 41 42 43 43 43 43 42 42 41 40 39 39 39 40 40
32 32 33 33 33 33 34 34 34 35 36 36 36 36 36 37 37 38 38 39 39 39 39 40 41 42 42 43 43 44 45 45 45 45 44 44 43 42 42 42 42 42
33 33 34 34 34 34 35 36 36 37 37 37 38 38 38 39 39 40 40 41 41 41 41 41 42 43 43 44 45 45 46 47 48 47 46 45 45 45 45 46 46 45
34 35 35 35 36 37 37 38 38 39 39 40 40 40 41 41 42 42 43 43 44 44 44 44 45 45 46 46 47 47 48 50 51 50 50 49 48 48 48 49 49 49
37 37 38 38 39 39 40 40 40 41 41 42 42 42 43 43 44 44 45 45 46 47 47 47 47 47 48 49 50 50 51 52 53 53 53 53 53 52 52 52 53 53
39 40 40 41 42 42 42 42 42 43 43 43 43 44 44 45 46 46 47 48 48 49 50 50 50 50 51 51 52 53 54 55 55 56 57 57 57 56 55 56 56 56
42 42 43 43 44 44 44 45 45 45 45 46 46 47 47 48 48 49 50 51 51 52 53 53 53 54 54 54 55 56 57 57 58 58 59 60 60 60 59 59 59 59
44 45 45 46 46 47 48 48 49 49 50 50 51 52 52 52 53 53 54 54 55 55 56 56 56 57 57 57 57 58 59 60 61 61 62 62 63 63 62 62 62 62
46 47 48 49 50 51 51 52 53 53 54 54 55 55 56 56 57 57 57 58 58 59 59 59 60 60 60 60 60 60 61 62 63 64 64 65 65 65 65 65 65 65
48 49 50 51 52 53 53 54 55 56 56 57 57 58 58 59 59 60 60 60 61 61 62 62 63 63 63 62 62 62 62 63 65 65 65 65 66 66 66 67 67 67
Wind_Direction
256 259 261 264 266 266 266 264 261 259 258 257 256 253 250 248 248 248 250 251 251 251 253 254 256 256 257 257 258 259 259 257 256 256 256 258 257 255 253 254 254 253
257 258 260 263 266 267 268 266 264 262 258 256 256 254 252 249 247 246 247 248 249 250 250 252 254 255 255 254 254 255 256 256 255 256 256 256 257 255 253 252 252 252
260 262 263 265 267 268 269 268 268 267 264 260 257 255 253 251 248 247 246 246 247 249 251 253 255 257 257 255 254 254 254 254 254 254 254 252 251 251 250 250 250 250
264 266 268 269 270 271 271 270 269 268 267 264 261 259 256 252 250 248 247 247 248 250 253 255 258 261 262 261 260 259 258 257 255 254 254 253 252 252 252 251 251 251
266 268 269 270 270 271 272 272 271 269 267 265 263 262 260 258 255 252 251 251 251 252 253 255 258 260 262 263 263 263 261 260 258 256 256 255 255 255 255 255 255 255
267 268 269 269 269 270 270 270 269 268 266 265 264 263 262 262 260 258 256 255 255 255 256 257 259 260 261 263 263 264 263 262 260 258 257 255 255 254 254 254 255 255
267 268 268 269 269 269 269 268 267 266 265 263 263 262 261 261 260 260 260 258 257 257 258 259 260 261 262 263 264 265 265 265 264 263 262 260 259 258 257 257 257 257
265 267 269 270 270 270 270 269 267 266 264 263 262 261 261 261 260 260 261 261 261 260 260 260 261 262 263 265 266 268 269 269 270 270 269 268 268 267 266 265 264 264
266 268 269 271 272 272 271 270 268 266 265 263 262 262 262 261 261 261 261 262 262 263 263 263 264 264 265 266 266 267 269 269 270 271 271 271 271 271 270 270 269 268
268 269 270 271 272 272 271 269 267 266 265 265 264 263 264 263 263 263 263 263 264 264 264 265 266 266 266 267 268 268 269 269 269 269 270 270 269 269 269 269 269 269
270 270 269 269 270 269 268 267 267 266 265 265 265 265 265 265 265 265 265 265 265 266 266 266 267 267 267 267 267 268 269 269 269 269 269 268 268 268 267 266 266 266
269 268 267 267 267 267 266 265 265 266 266 266 266 266 266 266 266 266 267 267 267 267 266 267 267 267 267 267 267 267 267 267 268 268 268 268 268 267 267 266 265 264
265 264 264 266 266 266 265 265 264 264 265 266 266 267 267 267 267 267 267 268 268 268 268 268 268 267 267 267 267 267 267 266 266 266 266 267 267 266 266 266 265 264
261 260 263 265 266 265 264 264 264 264 264 265 265 266 267 267 268 268 268 268 269 269 269 268 268 268 268 267 267 267 266 266 266 266 266 266 266 266 266 265 265 264
260 261 263 265 265 265 264 263 263 264 265 265 265 266 266 267 267 267 268 268 269 269 269 269 269 268 268 268 267 267 266 266 266 266 266 265 265 266 266 266 265 265
262 263 264 265 264 263 263 263 264 265 266 266 267 267 267 267 267 267 267 267 268 268 268 268 268 268 268 268 267 267 266 266 265 265 265 265 265 264 265 265 266 265
263 263 264 264 264 264 265 265 266 267 268 268 269 269 269 269 268 267 267 267 267 267 268 268 268 268 268 268 267 267 266 265 264 264 264 264 265 264 263 263 264 264
264 264 264 264 265 267 268 269 270 271 272 272 273 272 272 272 271 270 270 269 268 268 268 268 268 269 269 269 269 269 268 267 265 264 263 263 264 264 264 263 262 263
268 268 269 269 270 270 271 272 273 274 274 274 274 274 274 274 273 273 273 272 271 271 270 269 269 269 269 270 270 270 270 269 268 267 266 266 265 265 265 265 264 263
273 274 275 275 275 276 276 276 276 277 277 276 276 276 275 275 274 274 273 273 272 272 271 271 270 270 270 270 270 270 270 270 270 269 269 269 268 268 267 267 267 266
277 277 278 278 279 279 279 279 279 278 278 277 277 276 276 275 275 274 274 274 273 273 272 272 272 271 271 271 272 272 272 271 271 271 271 271 270 270 270 270 269 269
277 278 278 278 278 278 278 278 278 277 276 276 275 275 274 274 273 273 273 273 273 273 273 273 273 273 273 273 273 273 273 272 272 272 272 272 272 272 272 272 272 271
278 278 278 278 278 278 278 278 277 277 277 277 276 275 275 275 274 274 274 273 273 273 272 272 272 273 273 273 274 274 274 273 273 273 272 272 272 272 272 272 272 272
280 280 280 280 280 281 281 281 281 281 281 280 280 279 279 279 278 278 278 277 276 276 275 274 274 273 273 273 273 273 273 273 272 272 272 272 272 272 272 272 271 271
282 282 283 283 283 283 283 283 283 283 283 283 282 282 281 281 281 281 280 280 280 280 279 278 278 277 276 275 275 274 274 273 272 271 271 271 271 271 271 271 270 270
283 283 283 284 284 284 284 284 284 284 283 283 283 283 282 282 282 281 281 281 281 281 281 280 280 279 279 278 277 276 276 274 274 273 272 271 271 270 269 269 269 269